This is the latest recevied weather packets stored in our database for station/object SP8C-10. If no packets are shown the sender has not sent any weather packets the latest 10 day(s).
| Time | Temp. | Humidity | Pressure | Rain* | Wind** | Luminosity | Snow |
|---|---|---|---|---|---|---|---|
| 1788174904 | 37.78° C | 29% | 1015 hPa | - | - | - | - |
| 1788173103 | 37.22° C | 30% | 1015.5 hPa | - | - | - | - |
| 1788171303 | 36.67° C | 31% | 1015.6 hPa | - | - | - | - |
| 1788169503 | 35.56° C | 31% | 1015.7 hPa | - | - | - | - |
| 1788167429 | 34.44° C | 32% | 1015.9 hPa | - | - | - | - |
| 1788165628 | 33.33° C | 35% | 1016 hPa | - | - | - | - |
| 1788163828 | 32.22° C | 36% | 1016.2 hPa | - | - | - | - |
| 1788162028 | 30.56° C | 37% | 1016.2 hPa | - | - | - | - |
| 1788160228 | 30° C | 38% | 1016.2 hPa | - | - | - | - |
| 1788158428 | 28.89° C | 39% | 1016.3 hPa | - | - | - | - |
| 1788156627 | 27.78° C | 38% | 1016.3 hPa | - | - | - | - |
| 1788154827 | 26.67° C | 37% | 1016.4 hPa | - | - | - | - |
| 1788153027 | 26.11° C | 36% | 1016.4 hPa | - | - | - | - |
| 1788151227 | 25.56° C | 35% | 1016.3 hPa | - | - | - | - |
| 1788149427 | 25.56° C | 34% | 1016.4 hPa | - | - | - | - |
| 1788147627 | 26.11° C | 34% | 1016.2 hPa | - | - | - | - |
| 1788145826 | 26.11° C | 35% | 1016.2 hPa | - | - | - | - |
| 1788144026 | 26.67° C | 35% | 1016.2 hPa | - | - | - | - |
| 1788117024 | 33.89° C | 27% | 1016.7 hPa | - | - | - | - |
| 1788115224 | 34.44° C | 27% | 1016.6 hPa | - | - | - | - |
| 1788113424 | 35.56° C | 27% | 1016.4 hPa | - | - | - | - |
| 1788111624 | 36.11° C | 26% | 1016.2 hPa | - | - | - | - |
| 1788104423 | 37.78° C | 25% | 1016 hPa | - | - | - | - |
| 1788102623 | 37.78° C | 26% | 1016.1 hPa | - | - | - | - |
| 1788100822 | 37.78° C | 26% | 1016.3 hPa | - | - | - | - |
* Rain since midnight (hover to see other rain measurements)
** Current wind speed in m/s (hover to see current wind gust speed)